Miscellaneous Local Product
Issued by NWS North Platte, NE

Home | Current Version | Previous Version | Text Only | Print | Product List | Glossary On
Versions: 1 2 3 4 5 6 7 8 9 10 11 12 13 14 15 16 17 18 19 20 21 22 23 24 25 26 27 28 29 30 31 32 33 34 35 36 37 38 39 40 41 42 43 44 45 46 47 48 49 50
000
AXUS43 KLBF 120310
MISLBF


WESTERN AND NORTH CENTRAL NEBRASKA HOURLY WEATHER ROUNDUP
NATIONAL WEATHER SERVICE NORTH PLATTE NE
1000 PM CDT FRI JUL 11 2014

***STATIONS NOT REPORTING VARIABLES SUCH AS SKY/WEATHER OR
PRESSURE ARE PROVIDED BY THE NEBRASKA DEPARTMENT OF
ROADS...RAWS...AND APRS NETWORKS...AND ARE NOT UNDER
NATIONAL WEATHER SERVICE QUALITY CONTROL***

...OBSERVATIONS IN AND NEAR THE EASTERN PANHANDLE OF NEBRASKA...

CITY           SKY/WX    TMP DP  RH WIND       PRES   REMARKS
PINE RIDGE     LGT RAIN  64  63  96 NE10      30.16R
CHADRON        RAIN      64  61  90 NE10      30.16F FOG
ALLIANCE       CLOUDY    67  65  93 N14       30.11R
SIDNEY         CLOUDY    71  65  81 CALM      30.12R
WHITECLAY        N/A     63  62  96 NW7         N/A
RUSHVILLE        N/A     62  60  94 NE25        N/A
GORDON           N/A     60  60  99 N30         N/A
CRESCENT LAKE    N/A     72  67  86 NE8         N/A
LISCO            N/A     79  70  74 W10         N/A
BIG SPRINGS      N/A     78  71  78 CALM        N/A
$$

...OBSERVATIONS IN NORTH CENTRAL NEBRASKA...

CITY           SKY/WX    TMP DP  RH WIND       PRES   REMARKS
VALENTINE      LGT RAIN  78  71  79 N8        30.06R
THEDFORD       CLOUDY    74  71  88 E13       30.02S
AINSWORTH      CLOUDY    74  72  92 NE6       30.04R
O`NEILL        CLOUDY    75  71  87 E3        30.05R THUNDER FOG
ORD            MOCLDY    75  73  93 E6        29.99R
BROKEN BOW     MOCLDY    77  74  90 E9        30.00R
BROWNLEE         N/A     79  72  78 W7          N/A
SPRINGVIEW       N/A     76  70  82 CALM        N/A
ROSE             N/A     78  77  96 E8          N/A
NEWPORT          N/A     76  76  98 E8          N/A
SARGENT          N/A     75  72  90 E3          N/A
COMSTOCK         N/A     81  79  94 E7          N/A  HX  91
CHAMBERS         N/A     74  72  93 E5          N/A
EWING            N/A     74  70  88 CALM        N/A
$$

...OBSERVATIONS IN SOUTHWEST NEBRASKA AND FAR NORTHEAST COLORADO...

CITY           SKY/WX    TMP DP  RH WIND       PRES   REMARKS
WRAY           CLOUDY    71  65  82 N7        30.06F
HOLYOKE        TSTM      73  64  73 E9        30.07R
IMPERIAL       CLOUDY    78  67  68 N12G24    30.01R
OGALLALA       TSTM      72  69  89 W14G31    30.07R
NORTH PLATTE   CLOUDY    77  69  76 E10       29.98R
MCCOOK         PTCLDY    84  56  38 S9        29.94R
LEXINGTON      PTCLDY    79  75  87 E13       29.98R
PAXTON           N/A     80  70  70 CALM        N/A
SUTHERLAND       N/A     82  75  78 N6          N/A
BRADY            N/A     77  72  84 CALM        N/A
GOTHENBURG       N/A     78  70  76 E5          N/A
CALLAWAY         N/A     77  73  87 E8          N/A
$$

...NORTH PLATTE AREA...

CITY           SKY/WX    TMP DP  RH WIND       PRES   REMARKS
AIRPORT        CLOUDY    77  69  76 E10       29.98R
INDIAN HILLS     N/A     78  70  76 CALM        N/A
$$

...SOME WEATHER OBSERVATIONS FROM AROUND THE REGION...

CITY           SKY/WX    TMP DP  RH WIND       PRES   REMARKS
DENVER         CLOUDY    68  63  84 E5        30.17F
LARAMIE        CLOUDY    63  55  75 NE6       30.32R
CHEYENNE       CLOUDY    64  61  90 N7        30.25S
SCOTTSBLUFF    CLOUDY    68  61  78 N24G33    30.12R
RAPID CITY     CLOUDY    67  61  81 W7        30.13R
PIERRE         CLOUDY    75  63  66 N3        30.00R
WINNER         FAIR      79  71  76 SW7       30.03R
SIOUX FALLS    MOCLDY    77  72  84 SW6       30.02R
OMAHA          MOCLDY    79  73  82 E7        29.99R
GRAND ISLAND   PTCLDY    79  75  87 E6        29.98R
KANSAS CITY    PTCLDY    80  73  79 S9        30.04R
WICHITA        PTCLDY    80  66  62 S9        30.03R
HAYS           CLEAR     79  55  44 S12       30.02R
LIBERAL        CLEAR     82  54  36 S13       30.07R
GOODLAND       MOCLDY    82  51  34 S16       30.02R
$$



USA.gov is the U.S. government's official web portal to all federal, state and local government web resources and services.